User: anonymous   Login
Location: Auckland
(36.8670°S, 174.7670°E)
Time: 14:49:59
(UTC+12:00)
Language:

A-11 Canister half - Orbit

View from above orbital plane
View from above orbital plane
View from above satellite
View from above satellite

Ground track
Ground track

The orbit data is extracted from the following two-line orbital elements,

1    51U 60009C   19198.40560716 -.00000093  00000-0 -89161-4 0  9991
2    51  47.2149 307.0683 0107085 242.9408 116.0419 12.18273672623116
Epoch (UTC): 17 July 2019 09:44:04
Eccentricity: 0.0107085
inclination: 47.2149°
perigee height: 1514 km
apogee height: 1685 km
right ascension of ascending node: 307.0683°
argument of perigee: 242.9408°
revolutions per day: 12.18273672
mean anomaly at epoch: 116.0419°
orbit number at epoch: 62311

The dashed part of the orbit path shows where the satellite is in the earth's shadow,  

DLR